Regional Weather Roundup
Issued by NWS

Home | Current Version | Previous Version | Graphics & Text | Print | Product List | Glossary On
Versions: 1 2 3 4 5 6 7 8 9 10 11 12 13 14 15 16 17 18 19 20 21 22 23 24 25 26 27
000
ASUS45 KBOU 230310
RWRCO

WEATHER ROUNDUP FOR COLORADO
NATIONAL WEATHER SERVICE DENVER/BOULDER CO
800 PM MST MON JAN 22 2018

NOTE: "FAIR" INDICATES FEW OR NO CLOUDS BELOW 12000 FEET WITH NO
SIGNIFICANT WEATHER AND/OR OBSTRUCTIONS TO VISIBILITY.

COZ001>005-013-030-031-230400-
...NORTHWEST COLORADO...

CITY           SKY/WX    TMP DP  RH WIND       PRES   REMARKS
CRAIG          CLOUDY    17  10  74 CALM      30.23S
HAYDEN         FAIR      16   8  71 E3        30.23S
MEEKER         MOCLDY    17  12  80 CALM      30.23S
RABBIT EARS PA MOCLDY     5   3  92 W8        30.08S WCI  -8
STEAMBOAT SPGS CLOUDY    12   7  81 CALM      30.20F
WALDEN         MOCLDY    18   3  53 S10       30.13S WCI   6
$$

COZ006>008-011-230400-
...WEST CENTRAL VALLEYS...

CITY           SKY/WX    TMP DP  RH WIND       PRES   REMARKS
GRAND JUNCTION MOCLDY    20  15  81 E3        30.28S
MONTROSE       CLOUDY    25  13  60 CALM      30.29R
EAGLE          CLOUDY    20  13  74 E6        30.25R WCI  12
RIFLE          CLOUDY    28  18  66 CALM      30.27S
DELTA          CLOUDY    27  16  62 NE5       30.28S WCI  22
NUCLA          MOCLDY    25  14  63 E9        30.29S WCI  15
$$

COZ017>023-064>068-230400-
...SOUTHWEST COLORADO...

CITY           SKY/WX    TMP DP  RH WIND       PRES   REMARKS
DURANGO        FAIR      16  11  80 N3        30.23R
CORTEZ         FAIR      16  12  84 E8        30.25S WCI   5
PAGOSA SPRINGS FAIR      11  10  93 CALM      30.21S
TELLURIDE      MOCLDY    13   6  74 SE6       30.21S WCI   4
WOLF CREEK PAS NOT AVBL
$$

COZ009-010-012-014-032>034-037-058>063-230400-
...CENTRAL COLORADO...

CITY           SKY/WX    TMP DP  RH WIND       PRES   REMARKS
ASPEN          MOCLDY    13   6  74 SW8       30.20R WCI   2
BUENA VISTA    FAIR      12  -3  51 CALM      30.13S
COPPER MTN     NOT AVBL
BERTHOUD PASS  FAIR      -2 -13  60 NW32G46   29.97F WCI -30
COTTONWOOD PAS FAIR      27  -6  24 W8G20     30.09S WCI  18
GUNNISON       MOCLDY     7   2  80 CALM      30.23R
KREMMLING      FAIR      14   9  79 CALM      30.21R
LEADVILLE      FAIR       4  -5  66 NE9       30.10R WCI -10
MONARCH PASS     N/A      5   1  85 W30       30.18S WCI -19
SALIDA         FAIR      25   3  39 SW9G18    30.19F WCI  16
SUNLIGHT       CLOUDY     5   3  92 SW10G16   30.18S WCI -10
WILKERSON PASS   N/A     12  -9  37 SW12G17   30.07S WCI  -2
$$

COZ069>075-230400-
...SAN LUIS VALLEY/SANGRE DE CRISTO MOUNTAINS...

CITY           SKY/WX    TMP DP  RH WIND       PRES   REMARKS
ALAMOSA        FAIR      11   1  64 SW7       30.17S WCI   0
DEL NORTE      FAIR      11   0  60 CALM      30.19R
LA VETA PASS   FAIR      12   1  62 SW23        N/A  WCI  -7
SAGUACHE       FAIR       9   1  72 N7        30.19S WCI  -3
$$

COZ035-036-038>040-230400-
...NORTHERN COLORADO FRONT RANGE...

CITY           SKY/WX    TMP DP  RH WIND       PRES   REMARKS
DENVER INTL AP MOCLDY    23   4  44 SE8       30.06S WCI  14
DMNS CITY PARK NOT AVBL
AURORA         MOCLDY    29   3  32 NE3       30.06S
FRONT RANGE AP PTCLDY    19   9  63 SE8       30.07R WCI   9
ERIE MUNI ARPT FAIR      33   7  33 SW7       30.11S WCI  27
BOULDER MUN AP FAIR      34   7  32 SW7       30.05F WCI  28
CENTENNIAL     FAIR      28   8  43 S5        30.05S WCI  23
BROOMFIELD     MOCLDY    34   5  29 W17G32    30.06R WCI  23
FORT COLLINS   FAIR      26  16  65 S7        30.05S WCI  18
LONGMONT       FAIR      28  16  60 N6        30.07S WCI  21
$$

COZ041-046-047-076>085-087-088-230400-
...PIKES PEAK/PALMER DIVIDE AND SOUTHERN FOOTHILLS...

CITY           SKY/WX    TMP DP  RH WIND       PRES   REMARKS
COLO. SPRINGS  CLOUDY    31   7  36 W3        30.07S
A. F. ACADEMY  CLOUDY    29   1  30 CALM      30.06S
SCHRIEVER AFB  CLOUDY    30   2  29 N7        30.08S WCI  24
CHEYENNE MTN   MOCLDY    34   0  23 SW8       30.02R WCI  27
ELLICOTT         N/A    N/A N/A N/A NE5       30.06S
FALCON         FAIR      26   0  32 NW3       30.07F
FORT CARSON    FAIR      30   7  37 SW7       30.07R WCI  23
LIMON          FAIR       8   5  87 N5        30.08R WCI   0
MONUMENT HILL  FAIR      18   1  49 S7        30.07S WCI   8
CANON CITY     FAIR      34  12  40 NW12      30.08S WCI  25
WALSENBURG     NOT AVBL
TRINIDAD       FAIR      20   9  62 W8        30.11R WCI  10
$$

COZ042>045-048>051-090-091-230400-
...NORTHEAST COLORADO...

CITY           SKY/WX    TMP DP  RH WIND       PRES   REMARKS
GREELEY ARPT   FAIR      25  15  66 VRB7      30.06R WCI  17
AKRON          FAIR      21   8  57 N14       30.06R WCI   8
BURLINGTON     FAIR      14   8  77 W12       30.09R WCI   0
WRAY           FAIR      19  12  73 SW8       30.07R WCI   9
YUMA           FAIR      21  12  68 NW12      30.06S WCI   9
STERLING       FAIR      25  14  63 N14       30.06S WCI  13
HOLYOKE        FAIR      30  16  55 NW12      30.06R WCI  21
FORT MORGAN    FAIR      25  10  53 N17       30.06F WCI  12
$$

COZ086-089-092>099-230400-
...SOUTHEAST COLORADO...

CITY           SKY/WX    TMP DP  RH WIND       PRES   REMARKS
PUEBLO         FAIR      32  10  40 SW7       30.08R WCI  26
LA JUNTA       FAIR      34   9  35 E5        30.10R WCI  30
LAMAR          FAIR      16  12  84 SW8       30.10R WCI   5
SPRINGFIELD      N/A     16  12  84 VRB6      30.10S WCI   7
$$




USA.gov is the U.S. government's official web portal to all federal, state and local government web resources and services.